Flag for Kazakhstan

Past Weather in Oral, Kazakhstan — Yesterday and Last 2 Weeks

Currently: 16 °F. Clear. (Weather station: Uralsk, Kazakhstan). See more current weather

Past Weather in Oral — Graph

°F

Oral Temperature Yesterday

Maximum temperature yesterday: 27 °F (at 3:00 am)
Minimum temperature yesterday: 12 °F (at 9:30 am)
Average temperature yesterday: 20 °F

High & Low Weather Summary for the Past Weeks

 TemperatureHumidityPressure
High36 °F (Jan 24, 9:00 am)100% (Jan 16, 1:32 am)30.48 "Hg (Jan 16, 1:32 am)
Low-18 °F (Jan 21, 7:00 am)69% (Jan 21, 10:00 am)29.50 "Hg (Jan 16, 1:12 am)
Average12 °F86%30.13 "Hg
* Reported Jan 12 8:00 pm — Jan 27 8:30 pm, Oral. Weather by CustomWeather, © 2021

Note: Actual official high and low records may vary slightly from our data, if they occured in-between our weather recording intervals... More about our weather records

Oral Weather History for the Previous 24 Hours

Scroll right to see more
 ConditionsComfort  
Time TempWeatherWind HumidityBarometerVisibility
8:30 pm
Wed, Jan 27
18 °FClear.20 mph86%30.33 "Hg10 mi
7:30 pm19 °FClear.17 mph86%30.33 "Hg10 mi
7:00 pm19 °FClear.17 mph86%30.33 "Hg10 mi
6:30 pm21 °FClear.15 mph86%30.36 "Hg10 mi
6:00 pm21 °FSunny.15 mph93%30.36 "Hg10 mi
5:30 pm23 °FSunny.17 mph86%30.36 "Hg10 mi
5:00 pm23 °FSunny.20 mph86%30.36 "Hg10 mi
4:30 pm23 °FSunny.17 mph86%30.36 "Hg10 mi
4:00 pm23 °FSunny.15 mph86%30.36 "Hg10 mi
3:30 pm25 °FSunny.20 mph80%30.36 "Hg10 mi
3:00 pm25 °FSunny.20 mph80%30.39 "Hg10 mi
2:30 pm25 °FSunny.22 mph80%30.39 "Hg10 mi
2:00 pm23 °FSunny.20 mph86%30.39 "Hg10 mi
1:30 pm23 °FPassing clouds.20 mph86%30.39 "HgN/A
1:00 pm21 °FPassing clouds.17 mph93%30.39 "HgN/A
12:30 pm21 °FScattered clouds.17 mph86%30.42 "HgN/A
12:00 pm21 °FScattered clouds.20 mph86%30.39 "HgN/A
11:30 am21 °FScattered clouds.22 mph86%30.39 "HgN/A
11:00 am19 °FScattered clouds.20 mph93%30.42 "HgN/A
10:30 am19 °FScattered clouds.17 mph93%30.39 "HgN/A
10:00 am18 °FPassing clouds.17 mph93%30.42 "HgN/A
9:30 am18 °FPassing clouds.17 mph93%30.39 "HgN/A
9:00 am18 °FIce fog.17 mph93%30.42 "Hg2 mi
8:30 am18 °FIce fog.17 mph86%30.39 "Hg2 mi
8:00 am18 °FPassing clouds.20 mph86%30.39 "HgN/A
7:30 am18 °FClear.20 mph86%30.39 "Hg10 mi
7:00 am18 °FClear.17 mph86%30.39 "Hg10 mi
6:30 am18 °FClear.15 mph86%30.39 "Hg10 mi
6:00 am16 °FClear.15 mph93%30.39 "Hg10 mi
5:30 am16 °FClear.15 mph86%30.39 "Hg10 mi
5:00 am18 °FClear.17 mph86%30.39 "Hg10 mi
4:30 am19 °FClear.22 mph79%30.39 "Hg10 mi
4:00 am19 °FClear.22 mph79%30.42 "Hg10 mi
3:00 am18 °FClear.15 mph86%30.42 "Hg10 mi
2:00 am18 °FClear.15 mph79%30.42 "Hg10 mi
1:00 am18 °FClear.15 mph79%30.42 "Hg10 mi
12:00 am19 °FClear.17 mph79%30.42 "Hg10 mi
11:00 pm
Tue, Jan 26
19 °FClear.17 mph79%30.39 "Hg10 mi
10:00 pm19 °FClear.17 mph79%30.39 "Hg10 mi
9:00 pm19 °FClear.15 mph79%30.39 "Hg10 mi
Weather by CustomWeather, © 2021

See weather overview